This is the latest recevied weather packets stored in our database for station/object F5OWB. If no packets are shown the sender has not sent any weather packets the latest 10 day(s).
| Time | Temp. | Humidity | Pressure | Rain* | Wind** | Luminosity | Snow |
|---|---|---|---|---|---|---|---|
| 1778153661 | 16.11° C | 68% | 1018.2 hPa | 0 mm | - | 835 W/m² | - |
| 1778153597 | 16.11° C | 68% | 1018.3 hPa | 0 mm | - | 830 W/m² | - |
| 1778153537 | 16.11° C | 68% | 1018.3 hPa | 0 mm | - | 828 W/m² | - |
| 1778153475 | 16.11° C | 68% | 1018.3 hPa | 0 mm | - | 828 W/m² | - |
| 1778153416 | 16.11° C | - | - | 0 mm | - | - | - |
| 1778153415 | 16.11° C | 67% | 1018.3 hPa | 0 mm | - | 828 W/m² | - |
| 1778153350 | 16.11° C | 67% | 1018.3 hPa | 0 mm | - | 830 W/m² | - |
| 1778153290 | 16.11° C | 67% | 1018.3 hPa | 0 mm | - | 830 W/m² | - |
| 1778153228 | 16.11° C | 69% | 1018.3 hPa | 0 mm | - | 828 W/m² | - |
| 1778153168 | 16.11° C | 69% | 1018.3 hPa | 0 mm | - | 828 W/m² | - |
| 1778153167 | 16.11° C | 69% | 1018.3 hPa | 0 mm | - | 828 W/m² | - |
| 1778153109 | 16.11° C | 71% | 1018.5 hPa | 0 mm | - | 826 W/m² | - |
| 1778153046 | 16.11° C | 71% | 1018.3 hPa | 0 mm | - | 828 W/m² | - |
| 1778152988 | 15.56° C | 68% | 1018.3 hPa | 0 mm | - | 828 W/m² | - |
| 1778152928 | 15.56° C | 67% | 1018.3 hPa | 0 mm | - | 830 W/m² | - |
| 1778152927 | 15.56° C | 67% | 1018.3 hPa | 0 mm | - | 830 W/m² | - |
| 1778152863 | 15.56° C | 70% | 1018.5 hPa | 0 mm | - | 830 W/m² | - |
| 1778152802 | 15.56° C | 70% | 1018.3 hPa | 0 mm | - | 828 W/m² | - |
| 1778152740 | 15.56° C | 71% | 1018.5 hPa | 0 mm | - | 826 W/m² | - |
| 1778152683 | 15.56° C | 67% | 1018.3 hPa | 0 mm | - | 830 W/m² | - |
| 1778152622 | 15.56° C | 69% | 1018.5 hPa | 0 mm | - | 828 W/m² | - |
| 1778152556 | 15.56° C | 72% | 1018.3 hPa | 0 mm | - | 830 W/m² | - |
| 1778152498 | 15.56° C | 70% | 1018.5 hPa | 0 mm | - | 835 W/m² | - |
| 1778152438 | 15.56° C | 71% | 1018.3 hPa | 0 mm | - | 838 W/m² | - |
| 1778152374 | 15.56° C | 70% | 1018.5 hPa | 0 mm | - | 842 W/m² | - |
* Rain latest hour (hover to see other rain measurements)
** Current wind speed in m/s (hover to see current wind gust speed)